Flag for Germany Weather past 2 weeks in Troisdorf, North Rhine-Westphalia, Germany

Now
39 °F

Light rain. Mostly cloudy.


Feels Like: 31 °F
Forecast: 31 / 46 °F
Wind: 15 mph from Northwest

Location: Koeln / Bonn

Current Time: Feb 27, 2015 at 8:05:00 AM

Latest Report: Feb 27, 2015 at 7:20 AM


Visibility: N/A

Pressure: 29.83 "Hg

Humidity: 93%

Dew point: 37 °F

Location of TroisdorfLocation

Historic Weather in Troisdorf — Graph

°F

Troisdorf temperature yesterday

Maximum temperature yesterday: 48 °F (at 12:50 PM)
Minimum temperature yesterday: 37 °F (at 5:50 AM)
Average temperature yesterday: 43 °F

Past Weeks' High & Low Weather Summary

 TemperatureHumidityPressure
High52 °F (Feb 15, 2:20 PM)100% (Feb 17, 10:50 AM)30.77 "Hg (Feb 17, 10:50 AM)
Low28 °F (Feb 15, 6:50 AM)38% (Feb 15, 2:20 PM)29.39 "Hg (Feb 21, 4:20 AM)
Average39 °F80%29.99 "Hg
* Reported Feb 12 6:20 AM — Feb 27 6:50 AM, Troisdorf, Weather by CustomWeather, © 2015

Note: Actual official high and low records may vary slightly from our data, if they occured in-between our weather recording intervals... More about our weather records

Advertising

Troisdorf weather history for previous 24 hours

 ConditionsComfort  
Time TempWeatherWind HumidityBarometerVisibility
6:50 AM
Fri, Feb 27
41 °FLight rain. Mostly cloudy.18 mph93%29.80 "HgN/A
6:20 AM41 °FLight rain. Passing clouds.5 mph100%29.77 "HgN/A
5:20 AM43 °FLight rain. Passing clouds.2 mph93%29.77 "HgN/A
4:20 AM43 °FLight rain. Passing clouds.5 mph93%29.74 "HgN/A
3:50 AM43 °FLight rain. Passing clouds.6 mph93%29.77 "HgN/A
3:20 AM43 °FRain. Passing clouds.6 mph93%29.77 "HgN/A
2:50 AM43 °FLight rain. Passing clouds.7 mph93%29.77 "HgN/A
2:20 AM43 °FLight rain. Passing clouds.7 mph93%29.77 "HgN/A
1:50 AM43 °FLight rain. Mostly cloudy.8 mph93%29.77 "HgN/A
1:20 AM43 °FRain. Partly cloudy.8 mph93%29.77 "HgN/A
12:50 AM43 °FLight rain. Mostly cloudy.7 mph93%29.80 "HgN/A
12:20 AM43 °FPassing clouds.8 mph93%29.80 "Hg5 mi
11:50 PM
Thu, Feb 26
43 °FDrizzle. Mostly cloudy.8 mph93%29.80 "Hg6 mi
11:20 PM43 °FLight rain. Partly cloudy.7 mph93%29.83 "HgN/A
10:50 PM43 °FDrizzle. Mostly cloudy.8 mph93%29.83 "HgN/A
10:20 PM43 °FLight rain. Passing clouds.7 mph93%29.86 "HgN/A
9:50 PM43 °FLight rain. Passing clouds.8 mph87%29.86 "HgN/A
9:20 PM43 °FRain. Partly cloudy.10 mph87%29.86 "HgN/A
8:50 PM45 °FRain. Passing clouds.12 mph76%29.89 "HgN/A
8:20 PM46 °FPassing clouds.13 mph66%29.89 "HgN/A
7:50 PM46 °FPartly cloudy.13 mph71%29.89 "HgN/A
7:20 PM46 °FPassing clouds.13 mph71%29.92 "HgN/A
6:50 PM46 °FMostly cloudy.12 mph71%29.92 "HgN/A
6:20 PM46 °FPartly cloudy.10 mph71%29.92 "HgN/A
5:50 PM46 °FBroken clouds.13 mph71%29.92 "HgN/A
5:20 PM46 °FBroken clouds.12 mph71%29.95 "HgN/A
4:50 PM48 °FBroken clouds.14 mph66%29.95 "HgN/A
4:20 PM48 °FBroken clouds.13 mph66%29.98 "HgN/A
3:50 PM48 °FBroken clouds.13 mph66%29.98 "HgN/A
3:20 PM48 °FBroken clouds.15 mph66%29.98 "HgN/A
2:50 PM48 °FBroken clouds.13 mph66%29.98 "HgN/A
2:20 PM48 °FBroken clouds.14 mph66%30.01 "HgN/A
1:50 PM48 °FBroken clouds.14 mph66%30.01 "HgN/A
1:20 PM48 °FBroken clouds.13 mph71%30.04 "HgN/A
12:50 PM48 °FBroken clouds.13 mph71%30.04 "HgN/A
12:20 PM46 °FPartly sunny.12 mph76%30.07 "HgN/A
11:50 AM46 °FBroken clouds.10 mph82%30.07 "HgN/A
11:20 AM45 °FBroken clouds.13 mph81%30.07 "HgN/A
10:50 AM45 °FPartly sunny.13 mph76%30.07 "HgN/A
10:20 AM45 °FPassing clouds.10 mph76%30.07 "HgN/A
9:50 AM45 °FPassing clouds.8 mph81%30.09 "HgN/A
9:20 AM43 °FPassing clouds.8 mph81%30.09 "HgN/A
8:50 AM41 °FPassing clouds.6 mph87%30.09 "HgN/A
8:20 AM39 °FPassing clouds.6 mph93%30.09 "HgN/A
Weather by CustomWeather, © 2015

See weather overviewHow to use our weather pages